TRA081 EHRD-EHAM

Flight info

Callsign TRA081
Flight time 0h 11m
Altitude 5000
Route SPL
Aircraft B738/M-SDE2E3FGHIRWXY/LB1

Departure

Time 2026-04-27 13:48
Airport Rotterdam The Hague Airport (EHRD)

Arrival

Time 2026-04-27 13:59
Airport Amsterdam Airport Schiphol (EHAM)
Time Latitude Longitude Altitude Speed Heading
2026-04-27 13:25 51.94994 4.43447 1 ft 0 kts 326°
2026-04-27 13:44 51.95000 4.43440 0 ft 2 kts 326°
2026-04-27 13:44 51.95026 4.43432 0 ft 5 kts 19°
2026-04-27 13:44 51.95057 4.43490 0 ft 9 kts 57°
2026-04-27 13:44 51.95097 4.43588 0 ft 12 kts 56°
2026-04-27 13:45 51.95157 4.43604 1 ft 10 kts 327°
2026-04-27 13:45 51.95222 4.43536 0 ft 12 kts 327°
2026-04-27 13:45 51.95261 4.43444 0 ft 10 kts 246°
2026-04-27 13:45 51.95220 4.43339 0 ft 12 kts 237°
2026-04-27 13:46 51.95172 4.43224 0 ft 13 kts 237°
2026-04-27 13:46 51.95128 4.43089 1 ft 14 kts 245°
2026-04-27 13:46 51.95128 4.42933 1 ft 15 kts 316°
2026-04-27 13:46 51.95213 4.42859 1 ft 11 kts 12°
2026-04-27 13:47 51.95253 4.42935 1 ft 0 kts 57°
2026-04-27 13:48 51.95324 4.43111 1 ft 57 kts 57°
2026-04-27 13:48 51.95704 4.44065 22 ft 137 kts 57°
2026-04-27 13:48 51.96263 4.45474 668 ft 156 kts 54°
2026-04-27 13:48 51.96861 4.47020 1564 ft 165 kts 57°
2026-04-27 13:49 51.97506 4.48695 2200 ft 195 kts 58°
2026-04-27 13:49 51.98280 4.50665 2781 ft 217 kts 56°
2026-04-27 13:49 51.99096 4.52729 2993 ft 219 kts 56°
2026-04-27 13:49 51.99907 4.54792 2975 ft 210 kts 56°
2026-04-27 13:50 52.00673 4.56689 2976 ft 194 kts 56°
2026-04-27 13:50 52.01389 4.58477 2961 ft 187 kts 56°
2026-04-27 13:50 52.02104 4.60230 2992 ft 184 kts 55°
2026-04-27 13:50 52.02834 4.61956 2986 ft 188 kts 54°
2026-04-27 13:51 52.03584 4.63716 2961 ft 189 kts 55°
2026-04-27 13:51 52.04384 4.65378 2828 ft 186 kts 39°
2026-04-27 13:51 52.05539 4.66113 2895 ft 182 kts
2026-04-27 13:51 52.06792 4.65787 2908 ft 187 kts 338°
2026-04-27 13:52 52.07885 4.64610 2963 ft 192 kts 323°
2026-04-27 13:52 52.08928 4.63216 2960 ft 196 kts 322°
2026-04-27 13:52 52.09969 4.61789 2964 ft 196 kts 322°
2026-04-27 13:52 52.10992 4.60373 2997 ft 192 kts 322°
2026-04-27 13:53 52.13023 4.57542 2763 ft 192 kts 322°
2026-04-27 13:53 52.14025 4.56109 2528 ft 191 kts 320°
2026-04-27 13:53 52.15018 4.54685 2305 ft 189 kts 321°
2026-04-27 13:54 52.15999 4.53282 2162 ft 190 kts 321°
2026-04-27 13:54 52.17011 4.51879 2049 ft 188 kts 325°
2026-04-27 13:54 52.18163 4.51048 2042 ft 183 kts 352°
2026-04-27 13:54 52.19406 4.51274 1982 ft 179 kts 24°
2026-04-27 13:55 52.20456 4.52253 1984 ft 172 kts 33°
2026-04-27 13:55 52.21324 4.53553 2010 ft 170 kts 56°
2026-04-27 13:55 52.21904 4.55273 2025 ft 175 kts 62°
2026-04-27 13:55 52.22497 4.57034 2053 ft 179 kts 59°
2026-04-27 13:56 52.23139 4.58769 2055 ft 179 kts 58°
2026-04-27 13:56 52.23788 4.60499 1920 ft 178 kts 57°
2026-04-27 13:56 52.24454 4.62200 1652 ft 179 kts 56°
2026-04-27 13:56 52.25138 4.63887 1413 ft 174 kts 56°
2026-04-27 13:57 52.25740 4.65448 1265 ft 150 kts 57°
2026-04-27 13:57 52.26250 4.66818 996 ft 135 kts 57°
2026-04-27 13:57 52.26726 4.68118 766 ft 131 kts 57°
2026-04-27 13:57 52.27204 4.69323 648 ft 123 kts 55°
2026-04-27 13:58 52.27658 4.70469 487 ft 121 kts 57°
2026-04-27 13:58 52.28103 4.71631 338 ft 120 kts 57°
2026-04-27 13:58 52.28547 4.72776 170 ft 119 kts 56°
2026-04-27 13:58 52.28988 4.73920 35 ft 118 kts 56°
2026-04-27 13:59 52.29392 4.74977 -3 ft 94 kts 57°
2026-04-27 13:59 52.29661 4.75675 -3 ft 51 kts 58°
2026-04-27 13:59 52.29815 4.76079 -5 ft 43 kts 57°
2026-04-27 13:59 52.29991 4.76487 -3 ft 39 kts 38°
2026-04-27 14:00 52.30173 4.76664 -2 ft 22 kts 28°
2026-04-27 14:00 52.30230 4.76713 -2 ft 2 kts 28°
2026-04-27 14:00 52.30234 4.76717 -2 ft 0 kts 28°
2026-04-27 14:01 52.30236 4.76719 -2 ft 0 kts 28°
2026-04-27 14:01 52.30237 4.76720 -2 ft 0 kts 28°
2026-04-27 14:01 52.30238 4.76720 -2 ft 1 kts 28°
2026-04-27 14:01 52.30264 4.76738 -2 ft 11 kts 15°
2026-04-27 14:02 52.30343 4.76685 -2 ft 15 kts 294°
2026-04-27 14:02 52.30381 4.76564 -2 ft 9 kts 320°
2026-04-27 14:02 52.30415 4.76568 -2 ft 4 kts 46°
2026-04-27 14:02 52.30426 4.76596 -2 ft 0 kts 58°